EDT,Max TemperatureF,Mean TemperatureF,Min TemperatureF,Max Dew PointF,MeanDew PointF,Min DewpointF,Max Humidity, Mean Humidity, Min Humidity, Max Sea Level PressureIn, Mean Sea Level PressureIn, Min Sea Level PressureIn, Max VisibilityMiles, Mean VisibilityMiles, Min VisibilityMiles, Max Wind SpeedMPH, Mean Wind SpeedMPH, Max Gust SpeedMPH,PrecipitationIn, CloudCover, Events, WindDirDegrees
2012-3-1,81,78,75,70,68,66,82,72,62,30.13,30.08,30.04,10,10,10,15,9,21,0.00,1,,129
2012-3-2,81,79,76,71,70,69,82,76,69,30.06,30.02,29.99,10,10,10,20,14,24,0.00,0,,137
2012-3-3,82,80,77,74,72,70,85,77,69,30.00,29.93,29.88,10,10,10,20,13,24,0.00,3,,158
2012-3-4,82,74,65,75,65,45,90,71,52,30.20,30.02,29.90,10,10,2,30,18,38,0.14,5,Rain,296
2012-3-5,75,68,61,55,50,43,63,56,48,30.32,30.26,30.19,10,10,10,23,13,31,0.00,0,,42
2012-3-6,77,72,66,62,57,55,68,59,50,30.32,30.28,30.25,10,10,10,25,15,33,0.00,3,,63
2012-3-7,78,75,71,68,66,59,84,73,61,30.28,30.23,30.19,10,10,8,24,13,31,T,7,Rain,74
2012-3-8,81,77,72,69,68,66,90,79,67,30.22,30.17,30.12,10,10,10,18,11,25,T,2,,85
2012-3-9,82,78,74,70,69,67,82,74,65,30.18,30.13,30.08,10,10,10,13,10,17,T,2,,103
2012-3-10,80,77,73,72,69,65,87,75,62,30.19,30.14,30.09,10,10,10,16,10,21,0.00,3,,51
2012-3-11,81,77,73,68,66,64,84,73,62,30.25,30.18,30.13,10,10,10,18,13,23,T,1,,92
2012-3-12,80,76,72,68,66,63,84,71,58,30.23,30.18,30.14,10,10,9,22,15,31,0.07,3,Rain,90
2012-3-13,81,77,72,65,64,60,79,68,56,30.20,30.17,30.14,10,10,10,18,11,22,0.00,0,,78
2012-3-14,81,76,71,66,65,62,79,69,58,30.20,30.15,30.11,10,10,10,16,9,22,0.06,2,,55
2012-3-15,81,76,71,70,67,63,90,76,62,30.17,30.14,30.10,10,9,2,22,11,30,0.35,3,Rain,68
2012-3-16,80,76,72,70,67,65,87,75,62,30.19,30.14,30.09,10,10,8,18,9,23,0.05,2,Rain,86
2012-3-17,80,77,73,68,66,63,79,71,62,30.21,30.16,30.12,10,10,10,18,10,23,T,2,Rain,77
2012-3-18,80,76,71,64,63,61,73,64,54,30.21,30.16,30.11,10,10,10,17,10,23,0.00,0,,77
2012-3-19,80,76,72,66,64,62,84,69,54,30.16,30.09,30.05,10,10,10,20,13,25,0.01,3,,84
2012-3-20,81,77,73,65,64,62,73,66,58,30.08,30.03,29.99,10,10,10,23,16,28,T,2,Rain,98
2012-3-21,82,78,75,70,68,65,78,72,65,30.11,30.05,30.01,10,10,10,20,17,30,0.00,2,,111
2012-3-22,82,79,75,72,69,67,82,74,65,30.13,30.08,30.04,10,10,10,23,16,30,T,4,Rain,110
2012-3-23,82,79,75,68,65,63,79,69,58,30.12,30.07,30.03,10,10,10,17,11,21,0.00,1,,112
2012-3-24,82,78,74,67,65,62,68,63,58,30.06,30.02,29.97,10,10,10,13,9,16,0.00,0,,120
2012-3-25,81,78,75,70,68,65,79,69,58,30.01,29.95,29.90,10,10,10,16,9,20,0.00,2,,233
2012-3-26,79,76,72,65,61,58,73,64,54,30.03,29.98,29.93,10,10,10,13,8,21,0.00,0,,345
2012-3-27,80,75,70,65,63,60,73,64,54,30.13,30.07,30.00,10,10,10,17,8,22,0.00,2,,58
2012-3-28,80,76,72,67,64,60,74,66,58,30.14,30.09,30.05,10,10,4,25,17,32,0.11,5,Rain,97
2012-3-29,81,78,74,66,64,62,74,68,62,30.08,30.03,29.99,10,10,10,18,13,23,0.00,1,,106
2012-3-30,82,78,74,68,65,62,79,69,58,30.07,30.02,29.98,10,10,10,16,12,22,0.00,0,,118
2012-3-31,81,79,76,72,70,68,82,75,67,30.03,29.99,29.94,10,10,10,17,10,22,0.00,0,,193